Time,TemperatureF,DewpointF,PressureIn,WindDirection,WindDirectionDegrees,WindSpeedMPH,WindSpeedGustMPH,Humidity,HourlyPrecipIn,Conditions,Clouds,dailyrainin,SoftwareType,DateUTC
2013-09-23 00:23:00,65.0,55.0,29.79,East,86,2.0,3.0,70,0.00,,,0.00,,2013-09-23 05:23:00,
2013-09-23 00:53:00,64.0,54.0,29.79,East,85,0.0,2.0,69,0.00,,,0.00,,2013-09-23 05:53:00,
2013-09-23 01:13:00,63.0,53.0,29.79,East,85,0.0,2.0,71,0.00,,,0.00,,2013-09-23 06:13:00,
2013-09-23 01:22:00,63.0,53.0,29.79,East,85,0.0,2.0,71,0.00,,,0.00,,2013-09-23 06:22:00,
2013-09-23 01:52:00,62.0,54.0,29.79,East,85,0.0,0.0,76,0.00,,,0.00,,2013-09-23 06:52:00,
2013-09-23 02:12:00,62.0,54.0,29.79,East,85,0.0,0.0,74,0.00,,,0.00,,2013-09-23 07:12:00,
2013-09-23 02:22:00,62.0,54.0,29.79,East,85,0.0,0.0,74,0.00,,,0.00,,2013-09-23 07:22:00,
2013-09-23 02:52:00,62.0,54.0,29.79,ENE,68,0.0,1.0,76,0.00,,,0.00,,2013-09-23 07:52:00,
2013-09-23 03:11:00,61.0,54.0,29.79,ENE,67,0.0,1.0,77,0.00,,,0.00,,2013-09-23 08:11:00,
2013-09-23 03:23:00,61.0,54.0,29.79,ENE,67,0.0,1.0,77,0.00,,,0.00,,2013-09-23 08:23:00,
2013-09-23 03:52:00,61.0,54.0,29.79,NE,51,0.0,1.0,77,0.00,,,0.00,,2013-09-23 08:52:00,
2013-09-23 04:11:00,61.0,54.0,29.79,NE,51,0.0,2.0,77,0.00,,,0.00,,2013-09-23 09:11:00,
2013-09-23 04:21:00,61.0,54.0,29.79,NE,51,0.0,2.0,77,0.00,,,0.00,,2013-09-23 09:21:00,
2013-09-23 04:53:00,61.0,54.0,29.79,East,84,1.0,3.0,78,0.00,,,0.00,,2013-09-23 09:53:00,
2013-09-23 05:13:00,61.0,54.0,29.79,East,85,3.0,5.0,79,0.00,,,0.00,,2013-09-23 10:13:00,
2013-09-23 05:23:00,61.0,54.0,29.79,East,85,3.0,5.0,79,0.00,,,0.00,,2013-09-23 10:23:00,
2013-09-23 05:53:00,60.0,54.0,29.80,East,82,3.0,6.0,81,0.00,,,0.00,,2013-09-23 10:53:00,
2013-09-23 06:02:00,60.0,54.0,29.80,East,82,3.0,6.0,81,0.00,,,0.00,,2013-09-23 11:02:00,
2013-09-23 06:21:00,60.0,54.0,29.79,East,91,2.0,5.0,82,0.00,,,0.00,,2013-09-23 11:21:00,
2013-09-23 06:52:00,59.0,54.0,29.79,East,84,2.0,6.0,82,0.00,,,0.00,,2013-09-23 11:52:00,
2013-09-23 07:22:00,59.0,54.0,29.80,East,84,2.0,5.0,82,0.00,,,0.00,,2013-09-23 12:22:00,
2013-09-23 07:32:00,59.0,54.0,29.80,East,84,2.0,5.0,82,0.00,,,0.00,,2013-09-23 12:32:00,
2013-09-23 07:52:00,60.0,54.0,29.80,East,87,5.0,6.0,82,0.00,,,0.00,,2013-09-23 12:52:00,
2013-09-23 08:22:00,60.0,54.0,29.80,East,80,3.0,7.0,82,0.00,,,0.00,,2013-09-23 13:22:00,
2013-09-23 08:52:00,61.0,55.0,29.81,East,100,3.0,6.0,81,0.00,,,0.00,,2013-09-23 13:52:00,
2013-09-23 09:22:00,65.0,56.0,29.82,ESE,111,5.0,7.0,74,0.00,,,0.00,,2013-09-23 14:22:00,
2013-09-23 09:52:00,70.0,58.0,29.83,SE,125,5.0,9.0,65,0.00,,,0.00,,2013-09-23 14:52:00,
2013-09-23 10:11:00,71.0,57.0,29.83,SE,124,6.0,13.0,62,0.00,,,0.00,,2013-09-23 15:11:00,
2013-09-23 10:21:00,71.0,57.0,29.83,SE,124,6.0,13.0,62,0.00,,,0.00,,2013-09-23 15:21:00,
2013-09-23 10:54:00,73.0,56.0,29.83,ESE,122,9.0,14.0,56,0.00,,,0.00,,2013-09-23 15:54:00,
2013-09-23 11:04:00,73.0,56.0,29.83,ESE,122,9.0,14.0,56,0.00,,,0.00,,2013-09-23 16:04:00,
2013-09-23 11:24:00,75.0,56.0,29.82,ESE,109,8.0,12.0,52,0.00,,,0.00,,2013-09-23 16:24:00,
2013-09-23 11:53:00,76.0,57.0,29.83,East,97,7.0,13.0,51,0.00,,,0.00,,2013-09-23 16:53:00,
2013-09-23 12:24:00,77.0,56.0,29.82,ESE,105,6.0,10.0,48,0.00,,,0.00,,2013-09-23 17:24:00,
2013-09-23 12:52:00,79.0,58.0,29.80,SE,125,5.0,10.0,49,0.00,,,0.00,,2013-09-23 17:52:00,
2013-09-23 13:12:00,79.0,55.0,29.79,East,99,8.0,12.0,44,0.00,,,0.00,,2013-09-23 18:12:00,
2013-09-23 13:21:00,79.0,55.0,29.79,East,99,8.0,12.0,44,0.00,,,0.00,,2013-09-23 18:21:00,
2013-09-23 13:52:00,81.0,56.0,29.78,SSE,151,4.0,12.0,42,0.00,,,0.00,,2013-09-23 18:52:00,
2013-09-23 14:02:00,81.0,56.0,29.78,SSE,151,4.0,12.0,42,0.00,,,0.00,,2013-09-23 19:02:00,
2013-09-23 14:12:00,81.0,56.0,29.78,SSE,151,4.0,12.0,42,0.00,,,0.00,,2013-09-23 19:12:00,
2013-09-23 14:22:00,81.0,54.0,29.76,SE,124,1.0,9.0,40,0.00,,,0.00,,2013-09-23 19:22:00,
2013-09-23 14:33:00,81.0,54.0,29.76,SE,124,1.0,9.0,40,0.00,,,0.00,,2013-09-23 19:33:00,
2013-09-23 14:53:00,81.0,54.0,29.76,SE,124,1.0,9.0,40,0.00,,,0.00,,2013-09-23 19:53:00,
2013-09-23 15:22:00,83.0,55.0,29.75,South,171,3.0,7.0,38,0.00,,,0.00,,2013-09-23 20:22:00,
2013-09-23 15:32:00,83.0,55.0,29.75,South,171,3.0,7.0,38,0.00,,,0.00,,2013-09-23 20:32:00,
2013-09-23 15:52:00,84.0,55.0,29.73,South,182,3.0,9.0,37,0.00,,,0.00,,2013-09-23 20:52:00,
2013-09-23 16:11:00,84.0,55.0,29.72,ESE,121,6.0,12.0,37,0.00,,,0.00,,2013-09-23 21:11:00,
2013-09-23 16:23:00,84.0,55.0,29.72,ESE,121,6.0,12.0,37,0.00,,,0.00,,2013-09-23 21:23:00,
2013-09-23 16:54:00,84.0,55.0,29.71,SE,129,1.0,8.0,37,0.00,,,0.00,,2013-09-23 21:54:00,
2013-09-23 17:13:00,84.0,56.0,29.71,SE,130,7.0,10.0,39,0.00,,,0.00,,2013-09-23 22:13:00,
2013-09-23 17:24:00,84.0,56.0,29.71,SE,130,7.0,10.0,39,0.00,,,0.00,,2013-09-23 22:24:00,
2013-09-23 17:54:00,84.0,56.0,29.71,ESE,114,5.0,9.0,38,0.00,,,0.00,,2013-09-23 22:54:00,
2013-09-23 18:12:00,84.0,58.0,29.72,SE,129,5.0,7.0,41,0.00,,,0.00,,2013-09-23 23:12:00,
2013-09-23 18:22:00,84.0,58.0,29.72,SE,129,5.0,7.0,41,0.00,,,0.00,,2013-09-23 23:22:00,
2013-09-23 18:54:00,82.0,56.0,29.72,SE,136,5.0,10.0,41,0.00,,,0.00,,2013-09-23 23:54:00,
2013-09-23 19:01:00,82.0,56.0,29.72,SE,136,5.0,10.0,41,0.00,,,0.00,,2013-09-24 00:01:00,
2013-09-23 19:22:00,82.0,56.0,29.72,SE,136,5.0,10.0,41,0.00,,,0.00,,2013-09-24 00:22:00,
2013-09-23 19:43:00,79.0,58.0,29.72,ESE,117,1.0,3.0,49,0.00,,,0.00,,2013-09-24 00:43:00,
2013-09-23 19:52:00,78.0,57.0,29.72,ESE,117,0.0,0.0,49,0.00,,,0.00,,2013-09-24 00:52:00,
2013-09-23 20:12:00,77.0,59.0,29.73,ESE,117,0.0,0.0,54,0.00,,,0.00,,2013-09-24 01:12:00,
2013-09-23 20:22:00,77.0,59.0,29.73,ESE,117,0.0,0.0,54,0.00,,,0.00,,2013-09-24 01:22:00,
2013-09-23 20:32:00,77.0,59.0,29.73,ESE,117,0.0,0.0,54,0.00,,,0.00,,2013-09-24 01:32:00,
2013-09-23 20:43:00,77.0,59.0,29.73,ESE,117,0.0,0.0,54,0.00,,,0.00,,2013-09-24 01:43:00,
2013-09-23 20:52:00,75.0,59.0,29.74,ESE,117,0.0,0.0,58,0.00,,,0.00,,2013-09-24 01:52:00,
2013-09-23 21:22:00,73.0,61.0,29.75,ESE,117,0.0,1.0,65,0.00,,,0.00,,2013-09-24 02:22:00,
2013-09-23 21:52:00,73.0,60.0,29.77,ESE,117,0.0,0.0,63,0.00,,,0.00,,2013-09-24 02:52:00,
2013-09-23 22:12:00,73.0,60.0,29.77,ESE,117,0.0,0.0,63,0.00,,,0.00,,2013-09-24 03:12:00,
2013-09-23 22:22:00,73.0,60.0,29.77,ESE,117,0.0,0.0,63,0.00,,,0.00,,2013-09-24 03:22:00,
2013-09-23 22:55:00,72.0,62.0,29.78,ESE,117,0.0,0.0,70,0.00,,,0.00,,2013-09-24 03:55:00,
2013-09-23 23:14:00,71.0,62.0,29.79,ESE,117,0.0,0.0,72,0.00,,,0.00,,2013-09-24 04:14:00,
2013-09-23 23:24:00,71.0,62.0,29.79,ESE,117,0.0,0.0,72,0.00,,,0.00,,2013-09-24 04:24:00,
2013-09-23 23:54:00,71.0,62.0,29.79,ESE,117,0.0,2.0,72,0.00,,,0.00,,2013-09-24 04:54:00,